TimeEDT,TemperatureF,Dew PointF,Humidity,Sea Level PressureIn,VisibilityMPH,Wind Direction,Wind SpeedMPH,Gust SpeedMPH,PrecipitationIn,Events,Conditions,WindDirDegrees,DateUTC
12:54 AM,24.1,10.0,55,30.27,10.0,NW,6.9,-,N/A,,Overcast,320,2014-03-26 04:54:00
1:54 AM,24.1,12.0,60,30.27,10.0,WNW,6.9,-,N/A,,Overcast,300,2014-03-26 05:54:00
2:54 AM,21.9,8.1,55,30.28,10.0,NW,8.1,-,N/A,,Overcast,310,2014-03-26 06:54:00
3:54 AM,19.9,10.0,65,30.28,10.0,WNW,5.8,-,N/A,,Clear,290,2014-03-26 07:54:00
4:54 AM,19.0,10.0,68,30.29,10.0,NW,4.6,-,N/A,,Clear,310,2014-03-26 08:54:00
5:54 AM,17.1,10.0,74,30.31,10.0,NW,3.5,-,N/A,,Clear,310,2014-03-26 09:54:00
6:54 AM,16.0,10.0,77,30.31,10.0,Calm,Calm,-,N/A,,Clear,0,2014-03-26 10:54:00
7:54 AM,15.1,12.0,88,30.35,10.0,WSW,3.5,-,N/A,,Clear,250,2014-03-26 11:54:00
8:54 AM,19.0,15.1,85,30.36,10.0,Calm,Calm,-,N/A,,Clear,0,2014-03-26 12:54:00
9:54 AM,23.0,12.0,63,30.38,10.0,Calm,Calm,-,N/A,,Clear,0,2014-03-26 13:54:00
10:54 AM,26.1,9.0,49,30.39,10.0,WSW,6.9,-,N/A,,Clear,250,2014-03-26 14:54:00
11:54 AM,27.0,9.0,47,30.37,10.0,SSW,6.9,-,N/A,,Clear,210,2014-03-26 15:54:00
12:54 PM,30.0,9.0,41,30.35,10.0,SSE,5.8,-,N/A,,Clear,160,2014-03-26 16:54:00
1:54 PM,33.1,10.0,38,30.33,10.0,Variable,5.8,17.3,N/A,,Clear,0,2014-03-26 17:54:00
2:54 PM,35.1,10.0,35,30.30,10.0,SSE,10.4,18.4,N/A,,Clear,160,2014-03-26 18:54:00
3:54 PM,37.0,10.9,34,30.26,10.0,SSW,9.2,17.3,N/A,,Clear,210,2014-03-26 19:54:00
4:54 PM,37.9,9.0,30,30.23,10.0,SSE,9.2,-,N/A,,Clear,150,2014-03-26 20:54:00
5:54 PM,39.0,10.0,30,30.22,10.0,SW,10.4,-,N/A,,Clear,230,2014-03-26 21:54:00
6:54 PM,39.0,10.0,30,30.19,10.0,South,8.1,-,N/A,,Clear,180,2014-03-26 22:54:00
7:54 PM,37.0,10.0,33,30.19,10.0,South,6.9,-,N/A,,Clear,190,2014-03-26 23:54:00
8:54 PM,35.1,12.0,39,30.20,10.0,SSW,4.6,-,N/A,,Clear,200,2014-03-27 00:54:00
9:54 PM,34.0,12.9,42,30.18,10.0,South,8.1,-,N/A,,Clear,170,2014-03-27 01:54:00
10:54 PM,35.1,12.0,39,30.16,10.0,South,8.1,-,N/A,,Clear,170,2014-03-27 02:54:00
11:54 PM,34.0,12.9,42,30.15,10.0,South,6.9,-,N/A,,Scattered Clouds,180,2014-03-27 03:54:00